When you browse on this site, cookies collect data to enhance your experience and personalize the content and advertising you see.
Visit our Privacy Policy to learn more. By continuing to use the site, you agree to this use of cookies and data.
  • In Latvia
  • List of Countries
  • For 7 days
  • Water Temperature
  • Weather Map
  • Weather Widgets
  • user-avatar
    Login

    Hourly Weather Kurgannyy

    Today, 22 November, Friday

    Time Temperature Precipitation Wind Pressure Humidity
    00:00 -14°C° 0 mm 9 mps 773 mmHg 35%
    01:00 -14°C° 0 mm 9 mps 773 mmHg 38%
    02:00 -15°C° 0 mm 9 mps 773 mmHg 42%
    03:00 -14°C° 0 mm 7 mps 774 mmHg 44%
    04:00 -15°C° 0 mm 8 mps 774 mmHg 47%
    05:00 -15°C° 0 mm 8 mps 773 mmHg 50%
    06:00 -15°C° 0 mm 8 mps 773 mmHg 52%
    07:00 -15°C° 0 mm 8 mps 773 mmHg 52%
    08:00 -13°C° 0 mm 8 mps 773 mmHg 51%
    09:00 -14°C° 0 mm 9 mps 774 mmHg 47%
    10:00 -11°C° 0 mm 9 mps 774 mmHg 44%
    11:00 -10°C° 0 mm 9 mps 774 mmHg 40%
    12:00 -9°C° 0 mm 9 mps 773 mmHg 36%
    13:00 -9°C° 0 mm 9 mps 773 mmHg 35%
    14:00 -8°C° 0 mm 9 mps 772 mmHg 34%
    15:00 -6°C° 0 mm 6 mps 772 mmHg 30%
    16:00 -8°C° 0 mm 7 mps 772 mmHg 33%
    17:00 -9°C° 0 mm 7 mps 772 mmHg 35%
    18:00 -11°C° 0 mm 7 mps 772 mmHg 37%
    19:00 -11°C° 0 mm 7 mps 772 mmHg 36%
    20:00 -11°C° 0 mm 7 mps 772 mmHg 35%
    21:00 -11°C° 0 mm 7 mps 772 mmHg 34%
    22:00 -12°C° 0 mm 7 mps 772 mmHg 35%
    23:00 -12°C° 0 mm 7 mps 772 mmHg 36%

    Tomorrow, 23 November, Saturday

    Time Temperature Precipitation Wind Pressure Humidity
    00:00 -12°C° 0 mm 7 mps 772 mmHg 36%
    01:00 -12°C° 0 mm 7 mps 772 mmHg 38%
    02:00 -12°C° 0 mm 7 mps 771 mmHg 39%
    03:00 -12°C° 0 mm 7 mps 771 mmHg 41%
    04:00 -13°C° 0 mm 7 mps 771 mmHg 41%
    05:00 -13°C° 0 mm 7 mps 771 mmHg 42%
    06:00 -13°C° 0 mm 7 mps 771 mmHg 42%
    07:00 -12°C° 0 mm 7 mps 771 mmHg 40%
    08:00 -12°C° 0 mm 7 mps 771 mmHg 38%
    09:00 -11°C° 0 mm 7 mps 771 mmHg 37%
    10:00 -9°C° 0 mm 7 mps 771 mmHg 34%
    11:00 -7°C° 0 mm 7 mps 770 mmHg 31%
    12:00 -6°C° 0 mm 7 mps 770 mmHg 29%
    13:00 -4°C° 0 mm 7 mps 769 mmHg 29%
    14:00 -4°C° 0 mm 7 mps 769 mmHg 29%
    15:00 -4°C° 0 mm 7 mps 769 mmHg 29%
    16:00 -6°C° 0 mm 7 mps 769 mmHg 31%
    17:00 -7°C° 0 mm 7 mps 769 mmHg 33%
    18:00 -8°C° 0 mm 7 mps 769 mmHg 35%
    19:00 -8°C° 0 mm 7 mps 769 mmHg 36%
    20:00 -8°C° 0 mm 7 mps 769 mmHg 37%
    21:00 -8°C° 0 mm 7 mps 769 mmHg 38%
    22:00 -9°C° 0 mm 7 mps 769 mmHg 38%
    23:00 -9°C° 0 mm 7 mps 768 mmHg 39%

    Day after tomorrow, 24 November, Sunday

    Time Temperature Precipitation Wind Pressure Humidity
    00:00 -9°C° 0 mm 6 mps 768 mmHg 39%
    01:00 -9°C° 0 mm 6 mps 768 mmHg 42%
    02:00 -9°C° 0 mm 6 mps 768 mmHg 44%
    03:00 -9°C° 0 mm 6 mps 768 mmHg 47%
    04:00 -9°C° 0 mm 6 mps 768 mmHg 49%
    05:00 -9°C° 0 mm 7 mps 768 mmHg 51%
    06:00 -9°C° 0 mm 7 mps 767 mmHg 53%
    07:00 -8°C° 0 mm 7 mps 768 mmHg 53%
    08:00 -7°C° 0 mm 7 mps 768 mmHg 52%
    09:00 -7°C° 0 mm 7 mps 768 mmHg 52%
    10:00 -5°C° 0 mm 8 mps 768 mmHg 51%
    11:00 -4°C° 0 mm 8 mps 768 mmHg 50%
    12:00 -1°C° 0 mm 8 mps 767 mmHg 49%
    13:00 -1°C° 0 mm 8 mps 767 mmHg 48%
    14:00 -1°C° 0 mm 8 mps 767 mmHg 48%
    15:00 -1°C° 0 mm 7 mps 766 mmHg 47%
    16:00 -2°C° 0 mm 7 mps 766 mmHg 47%
    17:00 -4°C° 0 mm 7 mps 766 mmHg 48%
    18:00 -6°C° 0 mm 7 mps 766 mmHg 48%
    19:00 -6°C° 0 mm 7 mps 766 mmHg 48%
    20:00 -6°C° 0 mm 7 mps 766 mmHg 48%
    21:00 -6°C° 0 mm 7 mps 766 mmHg 47%
    22:00 -6°C° 0 mm 7 mps 766 mmHg 50%
    23:00 -6°C° 0 mm 7 mps 766 mmHg 53%

    25 November, Monday

    Time Temperature Precipitation Wind Pressure Humidity
    00:00 -6°C° 0 mm 7 mps 765 mmHg 56%
    01:00 -6°C° 0 mm 7 mps 765 mmHg 59%
    02:00 -7°C° 0 mm 7 mps 765 mmHg 62%
    03:00 -7°C° 0 mm 7 mps 765 mmHg 65%
    04:00 -7°C° 0 mm 7 mps 765 mmHg 66%
    05:00 -7°C° 0 mm 7 mps 764 mmHg 68%
    06:00 -7°C° 0 mm 7 mps 764 mmHg 69%
    07:00 -7°C° 0 mm 7 mps 764 mmHg 69%
    08:00 -6°C° 0 mm 7 mps 764 mmHg 68%
    09:00 -6°C° 0 mm 8 mps 765 mmHg 67%
    10:00 -3°C° 0 mm 7 mps 764 mmHg 64%
    11:00 -2°C° 0 mm 7 mps 764 mmHg 61%
    12:00 0°C° 0 mm 7 mps 764 mmHg 58%
    13:00 0°C° 0 mm 7 mps 763 mmHg 58%
    14:00 0°C° 0 mm 7 mps 763 mmHg 58%
    15:00 0°C° 0 mm 7 mps 763 mmHg 58%
    16:00 -1°C° 0 mm 7 mps 763 mmHg 60%
    17:00 -2°C° 0 mm 7 mps 762 mmHg 62%
    18:00 -3°C° 0 mm 7 mps 762 mmHg 64%
    19:00 -3°C° 0 mm 7 mps 762 mmHg 67%
    20:00 -3°C° 0 mm 7 mps 762 mmHg 70%
    21:00 -3°C° 0 mm 7 mps 762 mmHg 73%
    22:00 -3°C° 0 mm 7 mps 762 mmHg 74%
    23:00 -3°C° 0 mm 7 mps 761 mmHg 76%

    26 November, Tuesday

    Time Temperature Precipitation Wind Pressure Humidity
    00:00 -2°C° 0 mm 8 mps 761 mmHg 78%
    01:00 -2°C° 0 mm 8 mps 761 mmHg 80%
    02:00 -2°C° 0 mm 8 mps 761 mmHg 82%
    03:00 -2°C° 0 mm 8 mps 761 mmHg 84%
    04:00 -4°C° 0 mm 8 mps 760 mmHg 85%
    05:00 -4°C° 0 mm 8 mps 760 mmHg 86%
    06:00 -4°C° 0 mm 8 mps 760 mmHg 87%
    07:00 -2°C° 0 mm 8 mps 760 mmHg 86%
    08:00 -2°C° 0 mm 8 mps 760 mmHg 84%
    09:00 -2°C° 0 mm 8 mps 760 mmHg 82%
    10:00 -1°C° 0 mm 8 mps 760 mmHg 78%
    11:00 +1°C° 0 mm 8 mps 760 mmHg 73%
    12:00 +2°C° 0 mm 8 mps 759 mmHg 68%
    13:00 +2°C° 0 mm 8 mps 759 mmHg 67%
    14:00 +4°C° 0 mm 8 mps 759 mmHg 67%
    15:00 +3°C° 0 mm 9 mps 758 mmHg 66%
    16:00 +3°C° 0 mm 9 mps 758 mmHg 67%
    17:00 +2°C° 0 mm 9 mps 758 mmHg 68%
    18:00 +2°C° 0 mm 9 mps 758 mmHg 68%
    19:00 +1°C° 0 mm 9 mps 758 mmHg 72%
    20:00 +1°C° 0 mm 9 mps 757 mmHg 76%
    21:00 0°C° 0 mm 9 mps 757 mmHg 80%
    22:00 0°C° 0 mm 8 mps 757 mmHg 81%
    23:00 0°C° 0 mm 8 mps 757 mmHg 83%

    27 November, Wednesday

    Time Temperature Precipitation Wind Pressure Humidity
    00:00 0°C° 0 mm 8 mps 757 mmHg 85%
    01:00 -1°C° 0 mm 8 mps 756 mmHg 84%
    02:00 -1°C° 0 mm 8 mps 756 mmHg 83%
    03:00 -1°C° 0 mm 7 mps 756 mmHg 83%
    04:00 -1°C° 0 mm 7 mps 756 mmHg 83%
    05:00 -1°C° 0 mm 7 mps 756 mmHg 83%
    06:00 -1°C° 0 mm 7 mps 756 mmHg 84%
    07:00 0°C° 0 mm 7 mps 756 mmHg 82%
    08:00 0°C° 0 mm 7 mps 756 mmHg 81%
    09:00 +2°C° 0 mm 7 mps 756 mmHg 79%
    10:00 +2°C° 0 mm 7 mps 756 mmHg 78%
    11:00 +3°C° 0 mm 7 mps 755 mmHg 78%
    12:00 +4°C° 0 mm 7 mps 755 mmHg 77%
    13:00 +4°C° 0 mm 7 mps 755 mmHg 76%
    14:00 +5°C° 0 mm 7 mps 755 mmHg 76%
    15:00 +5°C° 0 mm 7 mps 755 mmHg 75%
    16:00 +5°C° 0 mm 7 mps 755 mmHg 76%
    17:00 +5°C° 0 mm 7 mps 755 mmHg 77%
    18:00 +4°C° 0 mm 7 mps 755 mmHg 78%
    19:00 +4°C° 0 mm 6 mps 755 mmHg 78%
    20:00 +4°C° 0 mm 6 mps 755 mmHg 79%
    21:00 +4°C° 0 mm 6 mps 755 mmHg 80%
    22:00 +4°C° 0 mm 6 mps 755 mmHg 82%
    23:00 +4°C° 0 mm 6 mps 755 mmHg 83%
    Show more